Madison, WI

5:51 AM CDT on June 26, 2017 (GMT -0500)
Dane County Regional-Truax

Weather History for KMSN - June, 2013

Change the Weather History Date:

Wednesday, June 12, 2013

  Actual Average Record
Temperature  
Mean Temperature 70 °F 66 °F  
Max Temperature 79 °F 77 °F 95 °F (1976)
Min Temperature 60 °F 55 °F 38 °F (1985)
Degree Days  
Heating Degree Days 0 2  
Month to date heating degree days 48 40  
Since 1 June heating degree days 48 40  
Since 1 July heating degree days 7233 7313  
Cooling Degree Days 5 3  
Month to date cooling degree days 24 29  
Year to date cooling degree days 77 59  
Since 1 June cooling degree days 24 29  
Growing Degree Days 20 (Base 50)    
Moisture  
Dew Point 64 °F    
Average Humidity 83    
Maximum Humidity 93    
Minimum Humidity 73    
Precipitation  
Precipitation 1.69 in 0.16 in 2.57 in (2008)
Month to date precipitation 2.62 1.80  
Year to date precipitation 22.71 13.63  
Snow  
Snow 0.00 in 0.00 in 0.00 in ()
Month to date snowfall 0.0 0.0  
Since 1 June snowfall 0.0 0.0  
Since 1 July snowfall 70.6 50.9  
Snow Depth 0.00 in    
Sea Level Pressure  
Sea Level Pressure 29.76 in    
Wind  
Wind Speed 9 mph (NE)    
Max Wind Speed 24 mph    
Max Gust Speed 32 mph    
Visibility 7 miles    
Events Fog , Rain , Thunderstorm    
T = Trace of Precipitation, MM = Missing Value Source: NWS Daily Summary

Daily Weather History Graph

Daily Weather History Graph

Search for Another Location

Airport or City:

Trip Planner

Search our weather history database for the weather conditions in past years. The results will help you decide how hot, cold, wet, or windy it might be!

Date:

Astronomy

Jun. 12, 2013 Rise Set
Actual Time 5:17 AM CDT 8:37 PM CDT
Civil Twilight 4:41 AM CDT 9:12 PM CDT
Nautical Twilight 3:55 AM CDT 9:58 PM CDT
Astronomical Twilight 2:59 AM CDT 10:55 PM CDT
Moon 9:01 AM CDT (6/12) 11:07 PM CDT (6/12)
Length of Visible Light 16h 31m
Length of Day
15h 20m
Waxing Crescent, 14% of the Moon is Illuminated
Jun 12
Waxing Crescent
Jun 16
First Quarter
Jun 23
Full
Jun 29
Last Quarter
Jul 8
New

Hourly Weather History & Observations

Time (CDT) Temp. Dew Point Humidity Pressure Visibility Wind Dir Wind Speed Gust Speed Precip Events Conditions
12:53 AM 68.0 °F 66.0 °F 93% 29.88 in 10.0 mi Calm Calm - 0.00 in   Partly Cloudy
1:53 AM 69.1 °F 66.0 °F 90% 29.87 in 10.0 mi Calm Calm - N/A   Mostly Cloudy
2:53 AM 69.1 °F 64.9 °F 87% 29.85 in 10.0 mi North 12.7 mph - N/A   Clear
3:53 AM 68.0 °F 64.9 °F 90% 29.88 in 9.0 mi NNE 8.1 mph - N/A   Partly Cloudy
4:53 AM 69.1 °F 63.0 °F 81% 29.84 in 10.0 mi NE 9.2 mph - N/A   Clear
5:53 AM 68.0 °F 63.0 °F 84% 29.84 in 10.0 mi SE 3.5 mph - N/A   Mostly Cloudy
6:53 AM 71.1 °F 63.0 °F 75% 29.89 in 10.0 mi Variable 5.8 mph - N/A   Overcast
7:53 AM 71.1 °F 63.0 °F 75% 29.88 in 10.0 mi Calm Calm - 0.00 in Rain Light Rain
8:53 AM 71.1 °F 64.9 °F 81% 29.84 in 8.0 mi South 8.1 mph - 0.01 in Rain Light Rain
9:53 AM 71.1 °F 66.0 °F 84% 29.75 in 10.0 mi ESE 6.9 mph - 0.00 in   Mostly Cloudy
10:53 AM 75.0 °F 66.9 °F 76% 29.75 in 10.0 mi East 9.2 mph - N/A   Scattered Clouds
11:53 AM 77.0 °F 68.0 °F 74% 29.79 in 10.0 mi ENE 8.1 mph - N/A   Scattered Clouds
12:53 PM 75.0 °F 66.9 °F 76% 29.82 in 8.0 mi North 8.1 mph - N/A   Mostly Cloudy
1:53 PM 75.9 °F 66.9 °F 74% 29.79 in 9.0 mi East 9.2 mph - N/A   Mostly Cloudy
2:53 PM 75.9 °F 68.0 °F 76% 29.76 in 8.0 mi East 10.4 mph - N/A   Overcast
3:53 PM 75.9 °F 68.0 °F 76% 29.71 in 9.0 mi East 9.2 mph - 0.00 in   Mostly Cloudy
4:53 PM 75.9 °F 66.0 °F 71% 29.67 in 9.0 mi East 11.5 mph - N/A   Mostly Cloudy
5:48 PM 75.2 °F 64.4 °F 69% 29.71 in 10.0 mi NNW 12.7 mph - 0.00 in Rain , Thunderstorm Light Thunderstorms and Rain
5:53 PM 73.0 °F 66.0 °F 79% 29.70 in 0.5 mi North 20.7 mph 27.6 mph 0.00 in Rain , Thunderstorm Heavy Thunderstorms and Rain
6:00 PM 68.0 °F 66.2 °F 94% 29.70 in 0.5 mi North 5.8 mph 27.6 mph 0.25 in Fog , Rain , Thunderstorm Heavy Thunderstorms and Rain
6:44 PM 64.4 °F 62.6 °F 94% 29.64 in 0.5 mi ESE 15.0 mph 27.6 mph 0.74 in Rain , Thunderstorm Light Thunderstorms and Rain
6:53 PM 64.9 °F 63.0 °F 93% 29.69 in 0.5 mi NNW 13.8 mph - 0.74 in Rain Light Rain
6:59 PM 64.4 °F 62.6 °F 94% 29.69 in 10.0 mi North 10.4 mph - 0.00 in Rain Light Rain
7:27 PM 66.2 °F 62.6 °F 88% 29.71 in 10.0 mi East 3.5 mph - 0.00 in Thunderstorm Thunderstorm
7:33 PM 66.2 °F 62.6 °F 88% 29.70 in 1.8 mi NE 8.1 mph - 0.02 in Rain , Thunderstorm Light Thunderstorms and Rain
7:48 PM 64.4 °F 64.4 °F 100% 29.70 in 0.8 mi NE 5.8 mph - 0.34 in Rain , Thunderstorm Heavy Thunderstorms and Rain
7:53 PM 64.9 °F 63.0 °F 93% 29.69 in 1.0 mi ENE 5.8 mph - 0.38 in Rain , Thunderstorm Heavy Thunderstorms and Rain
8:15 PM 64.4 °F 62.6 °F 94% 29.72 in 8.0 mi NNW 6.9 mph - 0.11 in Rain , Thunderstorm Light Thunderstorms and Rain
8:27 PM 64.4 °F 62.6 °F 94% 29.72 in 1.8 mi NNW 3.5 mph - 0.22 in Rain , Thunderstorm Heavy Thunderstorms and Rain
8:41 PM 64.4 °F 64.4 °F 100% 29.70 in 5.0 mi NE 10.4 mph - 0.36 in Rain , Thunderstorm Light Thunderstorms and Rain
8:53 PM 66.0 °F 64.0 °F 93% 29.73 in 8.0 mi North 5.8 mph - 0.37 in Rain , Thunderstorm Light Thunderstorms and Rain
9:22 PM 64.4 °F 62.6 °F 94% 29.71 in 6.0 mi NNE 8.1 mph - 0.05 in Rain Rain
9:53 PM 64.9 °F 63.0 °F 93% 29.70 in 5.0 mi East 11.5 mph - 0.15 in Rain Rain
10:20 PM 64.4 °F 62.6 °F 94% 29.70 in 10.0 mi NNE 13.8 mph - 0.04 in Rain Light Rain
10:53 PM 63.0 °F 61.0 °F 93% 29.68 in 8.0 mi North 13.8 mph 31.1 mph 0.04 in Rain Light Rain
11:02 PM 62.6 °F 60.8 °F 94% 29.72 in 8.0 mi NW 8.1 mph - 0.00 in Rain Light Rain
11:38 PM 62.6 °F 60.8 °F 94% 29.76 in 9.0 mi North 6.9 mph - 0.00 in   Overcast
11:53 PM 62.1 °F 60.1 °F 93% 29.75 in 8.0 mi North 8.1 mph - 0.00 in   Overcast